Погода в Калиновке

Украина / Киевская область     50°24′56″N   29°46′56″E
темп.,
°C
ветер,
м/с
пор.,
м/с
влажн.,
%
обл.,
%
осадки,
мм/ч
давл.,
гПа
погр.,
м
15 мая, сб
сб1500:00+12ююз369395 0.3 1007170
03:00+10ююз349698 0.3 100762
06:00+11юз249470 0.0 1007108
09:00+13зюз358855 0.1 1009333
12:00+17зюз4569100 0.7 10091062
15:00+18юз456044 2.2 10091414
18:00+17зюз45688 1.1 10101053
21:00+12зюз228712 2.1 101118
16 мая, вс
вс1600:00+11зюз33935 0.0 101140
03:00+10зюз22932 0.0 101222
06:00+10ю22930 0.0 101332
09:00+15ююв23775 0.0 1013383
12:00+20ююв345964 0.0 10121010
15:00+21ююв4557100 0.7 10111436
18:00+20ююв3566100 0.7 10101114
21:00+16юв3680100 0.8 101082
17 мая, пн
пн1700:00+14вюв3485100 0.0 100949
03:00+13вюв3387100 0.0 100942
06:00+13в2387100 0.1 100853
09:00+16св2278100 0.1 1007333
12:00+17с2384100 0.8 1006249
15:00+19ссз566727 1.1 1005724
18:00+20с456569 0.0 10031002
21:00+14сз349039 0.3 100358
18 мая, вт
вт1800:00+13зсз369398 0.1 1002165
03:00+13зсз2595100 0.8 1001158
06:00+13юз2496100 0.0 1001108
09:00+17ю347956 0.1 1001525
12:00+15ююз588951 4.1 1001384
15:00+14з9138292 5.4 1002843
18:00+12з7118199 0.1 1004918
21:00+11з6128448 0.1 1005747
19 мая, ср
ср1900:00+11зюз6128282 0.0 1006733
03:00+9юз614885 0.0 1006542
06:00+9юз6149151 0.0 1007575
09:00+12юз8117780 0.0 1007970
12:00+12юз81378100 0.1 10091219
15:00+15з10136093 0.4 10091691
18:00+14зсз71174100 0.3 10111233
21:00+10з3790100 0.5 1013152